Regional Weather Roundup
Issued by NWS

Home | Current Version | Previous Version | Graphics & Text | Print | Product List | Glossary On
Versions: 1 2 3 4 5 6 7 8 9 10 11 12 13 14 15 16 17 18 19 20 21 22 23 24 25 26 27 28 29 30 31 32 33 34 35 36 37 38 39 40 41 42 43 44 45 46 47 48 49 50
000
ASUS43 KMPX 011701
RWRMN
WEATHER ROUNDUP FOR MINNESOTA
NATIONAL WEATHER SERVICE TWIN CITIES/CHANHASSEN MN
1200 PM CDT WED OCT 01 2014


NOTE: "FAIR" INDICATES FEW OR NO CLOUDS BELOW 12,000 FEET WITH NO
SIGNIFICANT WEATHER AND/OR OBSTRUCTIONS TO VISIBILITY. N/A MEANS
CURRENT SKY AND/OR WEATHER CONDITIONS ARE NOT AVAILABLE.

MNZ060>063-068>070-011800-
   Twin Cities Metro

CITY           SKY/WX    TMP DP  RH WIND       PRES   REMARKS
TWIN CITIES    RAIN      50  49  96 SE8       29.82S FOG
ST PAUL        RAIN      50  49  96 SE10      29.84F FOG
CRYSTAL        LGT RAIN  52  49  89 S8        29.81S
BLAINE         CLOUDY    52  52 100 SE12      29.81
LAKEVILLE      HVY RAIN  48  48 100 SE5       29.82S
EDEN PRAIRIE   LGT RAIN  52  51  97 SE7       29.81S
SOUTH ST PAUL  RAIN      50  49  95 SE7       29.82F
LAKE ELMO      RAIN      50  50 100 S5        29.84F
$$
MNZ001>005-007-008-013>017-022>024-027-028-011800-
   Northwest Minnesota

CITY           SKY/WX    TMP DP  RH WIND       PRES   REMARKS
BEMIDJI        CLOUDY    55  52  88 S13       29.69F
HALLOCK        MOSUNNY   64  55  72 SW18      29.54S
ROSEAU         CLOUDY    63  54  72 S20G29    29.58S
WARROAD        CLOUDY    63  55  77 S10G16    29.60R
THIEF RVR FALL PTSUNNY   64  54  68 S20       29.61F
CROOKSTON      MOSUNNY   66  55  68 S16G24    29.62S
FOSSTON        CLOUDY    64  55  72 S17       29.65S
DETROIT LAKES  CLOUDY    59  55  88 S12       29.70S
PARK RAPIDS    CLOUDY    53  51  93 SE15      29.72S
MAHNOMEN       CLOUDY    63  56  79 S10G18    29.66F
$$
MNZ006-009>011-018-025>026-011800-
   North Central Minnesota

CITY           SKY/WX    TMP DP  RH WIND       PRES   REMARKS
BAUDETTE       CLOUDY    58  52  80 S14G25    29.65S
FLAG ISLAND    CLOUDY    59  54  82 S24G30    29.57S
INTL FALLS     CLOUDY    52  47  83 S9G16     29.72F
WASKISH        CLOUDY    55  52  88 CALM      29.68F
BIG FORK       CLOUDY    52  46  82 S9        29.76S
LONGVILLE      CLOUDY    52  48  87 S9        29.76S
GRAND RAPIDS   CLOUDY    48  45  87 S13G24    29.78S
CRANE LAKE     CLOUDY    52  46  82 S7        29.78F
ORR            CLOUDY    52  45  76 S12G17    29.74F
COOK           CLOUDY    52  46  82 S16G25    29.79S
WALKER         CLOUDY    52  49  90 S10G16    29.73S
$$
MNZ012-019>021-037-011800-
   Northeast Minnesota

CITY           SKY/WX    TMP DP  RH WIND       PRES   REMARKS
DULUTH         LGT RAIN  49  46  90 SE10      29.84F FOG
ELY            LGT RAIN  48  46  93 S12       29.82S
HIBBING        CLOUDY    50  46  86 SE7G17    29.81F FOG
EVELETH        LGT RAIN  50  46  87 SE10      29.83S
DULUTH HARBOR  HVY RAIN  50  48  93 CALM      29.86F
TWO HARBORS    RAIN      46  43  87 E6        29.84F
SILVER BAY     RAIN      45  45 100 E6        29.85F
GRAND MARAIS     N/A     50  46  86 E5        29.90F
G MARAIS ARPRT CLOUDY    45  41  87 SE3       29.89F
$$
MNZ029>031-032-039>041-046>048-054>057-064-011800-
   West Central Minnesota

CITY           SKY/WX    TMP DP  RH WIND       PRES   REMARKS
FERGUS FALLS   PTSUNNY   63  57  82 S12       29.70F
WHEATON        PTSUNNY   66  55  68 SW13      29.71S
MORRIS         PTSUNNY   64  61  88 S10       29.71R FOG
ALEXANDRIA     CLOUDY    57  55  93 SE9       29.74S FOG
ELBOW LAKE     CLOUDY    60  57  89 S12       29.71F
WADENA         CLOUDY    54  52  94 S10       29.73R
GLENWOOD       LGT RAIN  57  55  94 SE8       29.74S
APPLETON       PTSUNNY   64  59  82 S7        29.71S
BENSON         CLOUDY    61  57  88 S9        29.72S
ORTONVILLE     PTSUNNY   70  57  64 SW8       29.70F
MADISON        PTSUNNY   70  63  78 SW8       29.71S
WILLMAR        CLOUDY    63  54  72 SE12G20   29.75F
$$
MNZ033>034-036-042>043-049>051-058-059-011800-
   Central Minnesota

CITY           SKY/WX    TMP DP  RH WIND       PRES   REMARKS
ST CLOUD       CLOUDY    54  51  90 SE15      29.79S
SAUK CENTRE    CLOUDY    53  52  95 SE12      29.75F FOG
PAYNESVILLE    CLOUDY    53  51  94 E13G20    29.76F
AITKIN         MIX PCPN  52  46  82 SE8       29.76F
PINE RIVER     CLOUDY    52  48  87 SE12G17   29.79S FOG
BRAINERD       CLOUDY    50  48  93 S9        29.77F FOG
STAPLES        CLOUDY    52  48  87 S7        29.75S
LONG PRAIRIE   CLOUDY    52  52 100 SE12      29.75F FOG
LITTLE FALLS   CLOUDY    52  46  82 SE9       29.77F
LITCHFIELD     CLOUDY    55  55 100 SE8       29.78F
BUFFALO        CLOUDY    52  49  90 SE5       29.81S
MAPLE LAKE     CLOUDY    54  52  94 SE7       29.80S
$$
MNZ037-044-045-052-053-011800-
   East Central Minnesota

CITY           SKY/WX    TMP DP  RH WIND       PRES   REMARKS
PRINCETON      CLOUDY    52  50  93 SE8       29.81S
MORA           DRIZZLE   46  45  93 SE7       29.83F
CAMBRIDGE      LGT RAIN  52  45  76 SE5       29.80S
RUSH CITY      CLOUDY    49  47  94 SE6       29.83S
MOOSE LAKE     LGT RAIN  48  46  93 S5        29.81F
HINCKLEY       RAIN      50  50 100 SE5       29.82F
CLOQUET        RAIN      48  46  93 SE3       29.83S
MCGREGOR       CLOUDY    48  46  93 SE8       29.79F
$$
MNZ071>073-080-081-089-090-097-098-011800-
   Southwest Minnesota

CITY           SKY/WX    TMP DP  RH WIND       PRES   REMARKS
MONTEVIDEO     CLOUDY    63  61  94 S7        29.73S
GRANITE FALLS  CLOUDY    66  58  75 SE9       29.74F
CANBY          CLOUDY    67  60  78 SW5       29.72F
MARSHALL       CLOUDY    68  57  68 SE3       29.71F
REDWOOD FALLS  CLOUDY    59  55  87 SE16      29.75F
OLIVIA         CLOUDY    59  54  82 SE12      29.74F
PIPESTONE      PTSUNNY   68  57  68 SW5       29.73S
WINDOM         CLOUDY    61  55  82 SE8       29.76F
WORTHINGTON    CLOUDY    61  57  88 SE8       29.76F
JACKSON        CLOUDY    59  54  82 SE6       29.77F
TRACY          CLOUDY    65  59  80 SE10      29.73F
SLAYTON        PTSUNNY   66  59  78 SE9       29.74F
$$
MNZ065>067-074>077-082>085-091>093-011800-
   South Central Minnesota

CITY           SKY/WX    TMP DP  RH WIND       PRES   REMARKS
MANKATO        CLOUDY    54  48  82 SE8       29.80S
NEW ULM          N/A     54  54 100 SE7       29.79S
ST JAMES       DRIZZLE   55  54  94 SE6       29.79F
FAIRMONT       CLOUDY    55  52  88 SE5       29.78F
GLENCOE        CLOUDY    55  53  92 SE8       29.79F
FARIBAULT      RAIN      52  52 100 CALM      29.82R
OWATONNA       HVY RAIN  54  50  87 SE9       29.80S
WASECA         DRIZZLE   50  46  87 S5        29.82S
ALBERT LEA     CLOUDY    54  54 100 S12G18    29.80S FOG
$$
MNZ078>079-086>088-094>096-011800-
   Southeast Minnesota

CITY           SKY/WX    TMP DP  RH WIND       PRES   REMARKS
ROCHESTER      CLOUDY    52  51  97 SE12G21   29.83S FOG
RED WING       LGT RAIN  52  50  93 SE8       29.82S
STANTON        LGT RAIN  52  49  90 SE6       29.80F
DODGE CENTER   CLOUDY    52  52 100 SE9       29.81F FOG
WINONA         CLOUDY    54  52  94 SE7       29.85F
AUSTIN         CLOUDY    54  52  94 S6        29.82R FOG
PRESTON        CLOUDY    53  50  90 SE10G16   29.84F FOG
$$
ABBREVIATIONS USED IN REMARKS
   TC - TEMPERATURES IN CELSIUS
  WCI - WIND CHILL INDEX
   HX - HEAT INDEX
  VSB - VISIBILITY
$$



USA.gov is the U.S. government's official web portal to all federal, state and local government web resources and services.